Location: Waco, TX
(31.5480°N, 97.1670°W)
Time: 03:58:58
(UTC-06:00)

ISS - Pass Details

Date: 16 November 2017
Orbit: 401 x 407 km, 51.6° (Epoch: 18 November)

Event Time Altitude Azimuth Distance (km) Brightness Sun altitude
Rises 22:56:36 0° 246° (WSW) 2,309 - -68.6°
Reaches altitude 10° 22:58:50 10° 258° (WSW) 1,452 - -69.0°
Maximum altitude 23:01:44 29° 320° (NW) 773 - -69.5°
Drops below altitude 10° 23:04:38 10° 23° (NNE) 1,455 - -70.0°
Sets 23:06:53 0° 35° (NE) 2,315 - -70.4°
